"2016-03-25 00:00:00",1487451,3.802,252.8,7.597,1.201,9.15,102.6446,6.05,7.283,32.62,0,110.3,13.18,6.82,214.8
"2016-03-25 00:00:30",1487452,3.706,252.7,6.026,1.225,8.61,102.6328,6.019,7.232,32.66,0,110.3,13.18,6.79,214.7
"2016-03-25 00:01:00",1487453,3.447,248.1,3.221,0.155,7.126,102.6266,6.004,7.118,32.7,0,110.3,13.23,6.78,210.1
"2016-03-25 00:01:30",1487454,3.466,249.1,8.33,0.743,7.979,102.6252,6,7.188,32.97,0,110.3,13.18,6.77,211.1
"2016-03-25 00:02:00",1487455,5.138,268.7,7.965,1.389,11.01,102.6157,5.976,7.244,33.03,0,110.3,13.18,6.75,230.7
"2016-03-25 00:02:30",1487456,4.875,275,8.09,1.462,10.82,102.6053,5.949,7.254,33.04,0,110.3,13.18,6.72,237.0
"2016-03-25 00:03:00",1487457,4.332,272.9,8.02,1.268,10.73,102.5988,5.933,7.255,33.05,0,110.2,13.19,6.71,234.9
"2016-03-25 00:03:30",1487458,3.712,263.5,6.262,1.194,8.77,102.5955,5.924,7.158,32.99,0,110.2,13.19,6.70,225.5
"2016-03-25 00:04:00",1487459,2.679,279.4,7.534,1.096,8.04,102.584,5.895,7.067,32.98,0,110.2,13.19,6.67,241.4
"2016-03-25 00:04:30",1487460,2.512,264.1,6.79,0.339,7.404,102.5722,5.865,6.978,32.98,0,110.2,13.24,6.64,226.1
"2016-03-25 00:05:00",1487461,3.089,254.7,8.96,0.663,7.879,102.5694,5.857,7.034,33.09,0,110.2,13.2,6.63,216.7
"2016-03-25 00:05:30",1487462,4.383,273.5,15.94,1.532,10.99,102.555,5.821,7.118,33.25,0,110.2,13.2,6.59,235.5
"2016-03-25 00:06:00",1487463,3.791,262.1,12.15,1.356,10.71,102.54,5.782,7.108,33.32,0,110.2,13.2,6.55,224.1
"2016-03-25 00:06:30",1487464,3.06,270.8,10.95,1.452,9.72,102.5369,5.775,7.052,33.35,0,110.2,13.2,6.55,232.8
"2016-03-25 00:07:00",1487465,2.701,253.8,14.08,1.27,8.65,102.5245,5.743,6.974,33.39,0,110.2,13.2,6.51,215.8
"2016-03-25 00:07:30",1487466,2.13,261.5,5.743,0.171,7.231,102.5149,5.718,6.852,33.37,0,110.2,13.24,6.49,223.5
"2016-03-25 00:08:00",1487467,2.201,242.8,5.997,0.19,7.09,102.5059,5.695,6.821,33.31,0,110.2,13.24,6.47,204.8
"2016-03-25 00:08:30",1487468,2.585,244.5,3.751,0.778,7.845,102.5014,5.684,6.791,33.15,0,110.2,13.2,6.46,206.5
"2016-03-25 00:09:00",1487469,3.809,244.1,6.474,1.423,9.79,102.4901,5.655,6.936,33.2,0,110.2,13.2,6.43,206.1
"2016-03-25 00:09:30",1487470,4.916,248.1,7.696,1.334,11.22,102.474,5.614,6.983,33.19,0,110.2,13.2,6.39,210.1
"2016-03-25 00:10:00",1487471,4.759,256.6,6.921,1.315,11.32,102.4721,5.609,6.942,33.19,0,110.2,13.2,6.38,218.6
"2016-03-25 00:10:30",1487472,3.754,249.4,6.581,1.235,8.79,102.4721,5.609,6.854,33.15,0,110.2,13.2,6.38,211.4
"2016-03-25 00:11:00",1487473,3.27,251.2,4.807,1.041,8.1,102.4641,5.589,6.763,33.21,0,110.2,13.2,6.36,213.2
"2016-03-25 00:11:30",1487474,2.921,248.9,3.225,0.176,7.265,102.4486,5.549,6.702,33.29,0,110.2,13.25,6.32,210.9
"2016-03-25 00:12:00",1487475,3.412,257.4,4.892,0.928,8.25,102.4396,5.526,6.654,33.5,0,110.2,13.2,6.30,219.4
"2016-03-25 00:12:30",1487476,4.531,265.2,7.665,1.406,11.02,102.4379,5.522,6.882,33.71,0,110.2,13.2,6.29,227.2
"2016-03-25 00:13:00",1487477,3.884,265.9,7.067,1.418,10.85,102.4297,5.501,6.866,33.49,0,110.2,13.21,6.27,227.9
"2016-03-25 00:13:30",1487478,4.08,264.7,7.842,1.412,10.6,102.4188,5.473,6.799,33.38,0,110.2,13.21,6.24,226.7
"2016-03-25 00:14:00",1487479,3.684,262.8,7.611,1.287,9.62,102.411,5.453,6.793,33.22,0,110.2,13.2,6.22,224.8
"2016-03-25 00:14:30",1487480,3.135,253.2,1.485,0.115,7.352,102.4121,5.456,6.568,32.95,0,110.2,13.25,6.23,215.2
"2016-03-25 00:15:00",1487481,2.918,252.5,2.921,0.226,7.505,102.4032,5.433,6.552,33.02,0,110.2,13.25,6.20,214.5
"2016-03-25 00:15:30",1487482,3.517,266.3,6.033,1.175,9.23,102.3934,5.408,6.598,33.26,0,110.2,13.2,6.18,228.3
"2016-03-25 00:16:00",1487483,4.735,273.9,7.004,1.328,11.88,102.3893,5.397,6.766,33.58,0,110.2,13.2,6.17,235.9
"2016-03-25 00:16:30",1487484,4.515,271.5,7.59,1.343,11.33,102.3862,5.389,6.679,33.64,0,110.2,13.2,6.16,233.5
"2016-03-25 00:17:00",1487485,3.286,260.6,6.117,1.184,9.17,102.3775,5.367,6.635,33.88,0,110.2,13.2,6.14,222.6
"2016-03-25 00:17:30",1487486,3.411,261.2,5.809,1.308,8.64,102.3674,5.342,6.532,34.18,0,110.2,13.2,6.11,223.2
"2016-03-25 00:18:00",1487487,2.483,259.3,2.14,0.14,7.279,102.3655,5.337,6.44,34.45,0,110.2,13.25,6.11,221.3
"2016-03-25 00:18:30",1487488,2.897,258.5,2.959,0.196,7.55,102.3613,5.326,6.413,34.82,0,110.2,13.25,6.10,220.5
"2016-03-25 00:19:00",1487489,4.297,270.1,6.758,1.39,10.35,102.3503,5.298,6.598,34.44,0,110.2,13.2,6.07,232.1
"2016-03-25 00:19:30",1487490,4.7,281.8,12.52,1.414,11.76,102.3368,5.263,6.629,34.28,0,110.2,13.21,6.03,243.8
"2016-03-25 00:20:00",1487491,3.933,276.2,6.197,1.369,10.6,102.3371,5.264,6.581,34.07,0,110.2,13.21,6.03,238.2
"2016-03-25 00:20:30",1487492,4.364,272.5,7.31,1.445,9.81,102.3261,5.236,6.452,34.03,0,110.1,13.22,6.01,234.5
"2016-03-25 00:21:00",1487493,3.288,267.8,5.982,1.044,8.37,102.3086,5.191,6.401,34.17,0,110.1,13.22,5.96,229.8
"2016-03-25 00:21:30",1487494,3.015,261.5,3.006,0.073,7.207,102.3035,5.178,6.299,34.17,0,110.1,13.27,5.95,223.5
"2016-03-25 00:22:00",1487495,2.781,254.5,1.188,0.095,7.093,102.3035,5.178,6.275,34.44,0,110.1,13.27,5.95,216.5
"2016-03-25 00:22:30",1487496,3.869,260.6,6.805,1.353,9.54,102.3027,5.176,6.411,35.21,0,110.1,13.22,5.95,222.6
"2016-03-25 00:23:00",1487497,4.399,266.7,7.786,1.368,11.12,102.2956,5.158,6.478,36.09,0,110.1,13.22,5.93,228.7
"2016-03-25 00:23:30",1487498,4.79,263,7.889,1.366,11.14,102.2891,5.142,6.463,36.06,0,110.1,13.22,5.91,225.0
"2016-03-25 00:24:00",1487499,3.966,260.4,8.12,1.218,8.58,102.2843,5.129,6.372,35.77,0,110.1,13.22,5.90,222.4
"2016-03-25 00:24:30",1487500,3.847,257.6,5.908,1.161,8.39,102.2753,5.106,6.302,35.27,0,110.1,13.22,5.88,219.6
"2016-03-25 00:25:00",1487501,3.081,256.7,3.7,0.204,7.285,102.2699,5.093,6.221,34.84,0,110.1,13.27,5.86,218.7
"2016-03-25 00:25:30",1487502,2.909,251.8,4.733,0.513,7.253,102.2699,5.093,6.202,34.92,0,110.1,13.23,5.86,213.8
"2016-03-25 00:26:00",1487503,4.278,260.4,7.139,1.463,10.14,102.2682,5.088,6.378,35.36,0,110.1,13.23,5.86,222.4
"2016-03-25 00:26:30",1487504,4.916,261.7,7.043,1.354,11.08,102.2643,5.078,6.405,34.55,0,110.2,13.23,5.85,223.7
"2016-03-25 00:27:00",1487505,4.4,256.2,7.683,1.325,10.09,102.2629,5.075,6.322,33.99,0,110.1,13.23,5.84,218.2
"2016-03-25 00:27:30",1487506,4.469,256.4,6.478,1.41,9.6,102.2609,5.07,6.366,34.07,0,110.1,13.23,5.84,218.4
"2016-03-25 00:28:00",1487507,3.558,250.9,4.135,0.739,7.561,102.2584,5.063,6.146,33.98,0,110.1,13.23,5.83,212.9
"2016-03-25 00:28:30",1487508,2.988,252.8,1.377,0.122,7.459,102.2602,5.068,6.156,34.15,0,110.1,13.27,5.84,214.8
"2016-03-25 00:29:00",1487509,4.014,257.4,7.182,1.301,9.59,102.2605,5.068,6.312,34.68,0,110.1,13.23,5.84,219.4
"2016-03-25 00:29:30",1487510,5.184,264.3,7.288,1.344,11.21,102.2628,5.074,6.39,35.23,0,110.1,13.23,5.84,226.3
"2016-03-25 00:30:00",1487511,4.514,263.1,6.758,1.338,10,102.2648,5.079,6.349,34.98,0,110.1,13.23,5.85,225.1
"2016-03-25 00:30:30",1487512,4.016,261.7,6.613,1.354,9.11,102.2648,5.079,6.331,34.96,0,110.1,13.23,5.85,223.7
"2016-03-25 00:31:00",1487513,3.74,259.6,6.276,1.184,8.08,102.2674,5.086,6.225,35.25,0,110.1,13.23,5.86,221.6
"2016-03-25 00:31:30",1487514,3.168,258.8,0.974,0.105,7.225,102.2635,5.076,6.151,35.32,0,110.1,13.27,5.85,220.8
"2016-03-25 00:32:00",1487515,3.927,264.3,6.974,1.154,8.75,102.2554,5.055,6.208,34.98,0,110.1,13.22,5.83,226.3
"2016-03-25 00:32:30",1487516,4.157,266.8,7.725,1.337,10.03,102.2574,5.061,6.326,34.98,0,110.1,13.22,5.83,228.8
"2016-03-25 00:33:00",1487517,4.478,269.2,6.418,1.491,10.42,102.2568,5.059,6.333,35.05,0,110.1,13.22,5.83,231.2
"2016-03-25 00:33:30",1487518,5.344,270.4,6.994,1.442,10.37,102.2606,5.069,6.3,35.06,0,110.1,13.22,5.84,232.4
"2016-03-25 00:34:00",1487519,4.703,270.7,7.417,1.336,9.58,102.2609,5.069,6.313,34.89,0,110.1,13.22,5.84,232.7
"2016-03-25 00:34:30",1487520,3.658,260.7,4.846,0.841,7.74,102.2626,5.074,6.105,34.71,0,110.1,13.22,5.84,222.7
"2016-03-25 00:35:00",1487521,3.863,263,6.68,0.842,8.53,102.2564,5.058,6.203,34.75,0,110.1,13.22,5.83,225.0
"2016-03-25 00:35:30",1487522,4.351,269.2,7.629,1.434,9.69,102.2528,5.049,6.185,34.68,0,110.2,13.22,5.82,231.2
"2016-03-25 00:36:00",1487523,3.753,266.2,11.14,1.214,9.79,102.2515,5.045,6.28,34.86,0,110.1,13.22,5.82,228.2
"2016-03-25 00:36:30",1487524,4.47,267.1,9.98,1.414,10.25,102.2461,5.032,6.288,34.95,0,110.1,13.22,5.80,229.1
"2016-03-25 00:37:00",1487525,4.622,279,13.36,1.418,10.29,102.2368,5.008,6.262,35.02,0,110.1,13.23,5.78,241.0
"2016-03-25 00:37:30",1487526,3.672,286.3,7.515,1.343,8.63,102.2365,5.007,6.157,35.04,0,110.1,13.23,5.78,248.3
"2016-03-25 00:38:00",1487527,2.967,270,5.644,0.203,7.503,102.2365,5.007,6.063,34.95,0,110.1,13.27,5.78,232.0
"2016-03-25 00:38:30",1487528,3.707,275.8,7.364,1.337,9.23,102.236,5.006,6.176,35.08,0,110.1,13.23,5.78,237.8
"2016-03-25 00:39:00",1487529,4.422,281.2,9.2,1.399,10.92,102.2295,4.989,6.207,35.16,0,110.1,13.24,5.76,243.2
"2016-03-25 00:39:30",1487530,4.058,281.2,6.531,1.392,10.09,102.2224,4.971,6.184,35.16,0,110.1,13.23,5.74,243.2
"2016-03-25 00:40:00",1487531,4.974,276.3,8.41,1.386,10.46,102.2125,4.946,6.209,35.24,0,110.1,13.24,5.72,238.3
"2016-03-25 00:40:30",1487532,4.441,290.8,9.09,1.391,9.43,102.2043,4.925,6.131,35.19,0,110.1,13.24,5.69,252.8
"2016-03-25 00:41:00",1487533,3.727,281.9,8.44,1.278,8.54,102.2026,4.921,6.12,35.21,0,110.1,13.24,5.69,243.9
"2016-03-25 00:41:30",1487534,3.152,284.9,8.04,0.95,8.07,102.2026,4.921,6.088,35.34,0,110.1,13.24,5.69,246.9
"2016-03-25 00:42:00",1487535,4.342,293,7.853,1.486,10.1,102.2024,4.92,6.112,35.44,0,110.1,13.24,5.69,255.0
"2016-03-25 00:42:30",1487536,3.821,287.2,9.71,1.365,9.89,102.1961,4.904,6.168,35.53,0,110.1,13.24,5.67,249.2
"2016-03-25 00:43:00",1487537,3.921,286.7,9.46,1.311,9.05,102.1885,4.885,6.079,35.46,0,110.1,13.24,5.65,248.7
"2016-03-25 00:43:30",1487538,4.678,292.5,11.76,1.38,9.94,102.1812,4.866,6.147,35.58,0,110.1,13.24,5.63,254.5
"2016-03-25 00:44:00",1487539,5.53,281.7,6.957,1.482,9.98,102.1702,4.838,6.151,35.47,0,110.1,13.24,5.61,243.7
"2016-03-25 00:44:30",1487540,4.402,283.1,7.508,1.06,8.21,102.1699,4.837,5.973,34.94,0,110.1,13.24,5.61,245.1
"2016-03-25 00:45:00",1487541,5.59,305.7,8.15,1.416,10.36,102.1705,4.839,6.086,35.07,0,110.1,13.24,5.61,267.7
"2016-03-25 00:45:30",1487542,5.068,304,9.7,1.307,10.28,102.1675,4.831,6.078,35.36,0,110.1,13.24,5.60,266.0
"2016-03-25 00:46:00",1487543,3.71,290.8,9.41,1.153,9.15,102.1627,4.819,6.028,35.42,0,110.1,13.24,5.59,252.8
"2016-03-25 00:46:30",1487544,4.511,290.8,7.071,1.394,10.17,102.1619,4.817,6.042,35.57,0,110.1,13.24,5.59,252.8
"2016-03-25 00:47:00",1487545,4.261,287.7,6.205,1.27,8.74,102.154,4.797,5.982,35.45,0,110.1,13.24,5.57,249.7
"2016-03-25 00:47:30",1487546,4.18,293.7,4.721,1.422,9.23,102.1507,4.788,5.946,35.35,0,110.1,13.24,5.56,255.7
"2016-03-25 00:48:00",1487547,3.681,298.4,8.66,1.116,8.95,102.1519,4.791,6.018,35.39,0,110.1,13.24,5.56,260.4
"2016-03-25 00:48:30",1487548,3.932,298.5,8.52,1.267,9.6,102.1522,4.792,5.995,35.59,0,110.1,13.24,5.56,260.5
"2016-03-25 00:49:00",1487549,4.669,315.7,8.12,1.37,9.08,102.1505,4.787,5.97,35.45,0,110.1,13.24,5.56,277.7
"2016-03-25 00:49:30",1487550,4.813,313,9.21,1.601,10.29,102.1443,4.772,6.022,35.44,0,110.1,13.24,5.54,275.0
"2016-03-25 00:50:00",1487551,4.719,314.3,6.533,1.438,9.46,102.1339,4.745,6.004,35.35,0,110.1,13.24,5.51,276.3
"2016-03-25 00:50:30",1487552,5.638,320.5,8.62,1.176,10.12,102.1252,4.723,5.989,34.92,0,110.1,13.24,5.49,282.5
"2016-03-25 00:51:00",1487553,4.867,326.6,9.04,1.479,9.55,102.1264,4.726,5.988,35.1,0,110,13.24,5.49,288.6
"2016-03-25 00:51:30",1487554,4.567,329.3,10.82,1.445,9.52,102.1278,4.73,5.933,35.37,0,110,13.24,5.50,291.3
"2016-03-25 00:52:00",1487555,4.957,307.9,8.35,1.521,10.31,102.1298,4.735,5.974,35.66,0,110,13.24,5.50,269.9
"2016-03-25 00:52:30",1487556,4.37,303.1,7.769,1.329,8.94,102.1307,4.737,5.909,35.74,0,110,13.24,5.51,265.1
"2016-03-25 00:53:00",1487557,4.852,319.7,10.08,1.732,10.13,102.1313,4.739,5.956,35.79,0,110,13.24,5.51,281.7
"2016-03-25 00:53:30",1487558,5.57,299.1,8.92,1.449,9.86,102.1234,4.718,5.985,35.32,0,110,13.24,5.49,261.1
"2016-03-25 00:54:00",1487559,6.704,297.5,8.96,1.326,11.03,102.1189,4.707,5.93,34.79,0,110,13.25,5.48,259.5
"2016-03-25 00:54:30",1487560,6.271,315.4,18.33,1.468,10.87,102.1186,4.706,5.888,34.42,0,110,13.25,5.47,277.4
"2016-03-25 00:55:00",1487561,6.157,324,6.608,1.517,9.15,102.1152,4.697,5.87,34.98,0,110,13.25,5.47,286.0
"2016-03-25 00:55:30",1487562,6.485,318.8,7.415,1.6,9.94,102.1062,4.674,5.857,35.16,0,110,13.25,5.44,280.8
"2016-03-25 00:56:00",1487563,6.24,314.4,9.82,1.531,10.2,102.1017,4.663,5.911,35.43,0,110,13.25,5.43,276.4
"2016-03-25 00:56:30",1487564,5.43,309.8,7.295,1.491,10.04,102.1017,4.663,5.891,35.6,0,110,13.25,5.43,271.8
"2016-03-25 00:57:00",1487565,4.721,290.5,9.65,1.262,10.59,102.1017,4.663,5.888,36.04,0,110,13.25,5.43,252.5
"2016-03-25 00:57:30",1487566,3.674,290.7,11.66,1.071,8.22,102.1017,4.663,5.693,36.04,0,110.1,13.25,5.43,252.7
"2016-03-25 00:58:00",1487567,6.086,313.9,8.77,1.334,10.02,102.1,4.659,5.876,35.56,0,110,13.25,5.43,275.9
"2016-03-25 00:58:30",1487568,5.682,307.1,6.656,1.261,9.75,102.0958,4.648,5.867,35.26,0,110,13.25,5.42,269.1
"2016-03-25 00:59:00",1487569,5.901,314.6,5.564,1.265,9.66,102.0912,4.636,5.779,35.51,0,110,13.25,5.40,276.6
"2016-03-25 00:59:30",1487570,6.585,312.2,11.17,1.494,10.11,102.087,4.625,5.886,35.67,0,110,13.25,5.39,274.2
"2016-03-25 01:00:00",1487571,6.373,307.1,14,1.539,10.37,102.0871,4.626,5.782,35.4,0,110,13.25,5.39,269.1
"2016-03-25 01:00:30",1487572,4.715,314.5,11.03,1.285,9.01,102.0914,4.637,5.835,35.81,0,110,13.25,5.40,276.5
"2016-03-25 01:01:00",1487573,5.702,312.4,8.12,1.241,9.31,102.0844,4.619,5.828,35.58,0,110,13.25,5.39,274.4
"2016-03-25 01:01:30",1487574,5.764,306.2,6.805,1.617,9.85,102.0848,4.62,5.811,35.34,0,110,13.25,5.39,268.2
"2016-03-25 01:02:00",1487575,5.949,310,8.29,1.71,9.93,102.0888,4.63,5.844,35.67,0,110,13.26,5.40,272.0
"2016-03-25 01:02:30",1487576,5.286,307.8,18.31,1.334,9.68,102.0903,4.634,5.84,35.85,0,110,13.26,5.40,269.8
"2016-03-25 01:03:00",1487577,6.106,310.8,11.55,1.547,10.15,102.085,4.62,5.764,35.92,0,110,13.26,5.39,272.8
"2016-03-25 01:03:30",1487578,3.835,302.7,15.71,1.178,8.83,102.0828,4.615,5.761,36.01,0,110,13.26,5.38,264.7
"2016-03-25 01:04:00",1487579,4.794,321.4,6.667,1.209,9.48,102.0679,4.576,5.749,35.86,0,110,13.26,5.34,283.4
"2016-03-25 01:04:30",1487580,6.066,305.5,11.95,1.362,9.4,102.0682,4.577,5.762,35.92,0,110,13.26,5.35,267.5
"2016-03-25 01:05:00",1487581,5.346,301.1,12.61,1.571,9.7,102.0623,4.562,5.763,36.11,0,110,13.25,5.33,263.1
"2016-03-25 01:05:30",1487582,5.709,300.9,8.22,1.543,9.75,102.0498,4.53,5.67,36.34,0,110,13.25,5.30,262.9
"2016-03-25 01:06:00",1487583,5.485,300.9,6.928,1.352,9.45,102.0462,4.521,5.692,36.81,0,110,13.25,5.29,262.9
"2016-03-25 01:06:30",1487584,6.377,307.3,7.108,1.374,9.31,102.036,4.495,5.609,37.18,0,110,13.25,5.26,269.3
"2016-03-25 01:07:00",1487585,5.066,302.3,7.697,1.194,8.3,102.0343,4.491,5.654,37.42,0,110,13.25,5.26,264.3
"2016-03-25 01:07:30",1487586,4.152,304.8,8.56,1.79,9.37,102.0267,4.471,5.63,37.61,0,110,13.25,5.24,266.8
"2016-03-25 01:08:00",1487587,4.686,308.6,10.35,1.414,10.15,102.012,4.434,5.693,37.57,0,110,13.25,5.20,270.6
"2016-03-25 01:08:30",1487588,4.913,292.1,7.55,1.344,8.89,102.0007,4.405,5.619,37.6,0,110,13.25,5.17,254.1
"2016-03-25 01:09:00",1487589,5.271,301.7,9.85,1.088,8.48,101.9998,4.403,5.543,37.79,0,110,13.26,5.17,263.7
"2016-03-25 01:09:30",1487590,6.101,307.8,14.19,1.239,9.64,101.9871,4.37,5.606,38.27,0,110,13.25,5.14,269.8
"2016-03-25 01:10:00",1487591,5.431,297.4,12.05,1.447,9.52,101.9713,4.33,5.577,38.33,0,110,13.26,5.10,259.4
"2016-03-25 01:10:30",1487592,4.317,286.1,12.05,0.99,8.29,101.9659,4.316,5.506,38.26,0,110,13.26,5.08,248.1
"2016-03-25 01:11:00",1487593,5.225,306.9,13.4,1.409,10.46,101.9521,4.281,5.597,38.16,0,110,13.27,5.05,268.9
"2016-03-25 01:11:30",1487594,4.972,304.4,7.816,1.254,8.79,101.9362,4.24,5.533,38.27,0,110,13.27,5.01,266.4
"2016-03-25 01:12:00",1487595,4.842,310,6.54,1.079,7.947,101.9323,4.23,5.411,38.49,0,110,13.27,5.00,272.0
"2016-03-25 01:12:30",1487596,5.162,297.3,15.53,1.758,9.45,101.9193,4.197,5.449,38.87,0,110,13.27,4.96,259.3
"2016-03-25 01:13:00",1487597,3.14,290.4,8.84,1.434,8.77,101.9063,4.164,5.434,39.05,0,110,13.27,4.93,252.4
"2016-03-25 01:13:30",1487598,3.475,283,9.31,1.177,8.45,101.8989,4.145,5.384,38.9,0,110,13.27,4.91,245.0
"2016-03-25 01:14:00",1487599,3.006,299.2,10.98,1.457,8.69,101.897,4.14,5.412,39.04,0,110,13.27,4.91,261.2
"2016-03-25 01:14:30",1487600,5.17,321.4,8.87,1.38,9.38,101.8843,4.108,5.417,39.31,0,109.9,13.27,4.87,283.4
"2016-03-25 01:15:00",1487601,4.718,308.1,8,0.719,7.352,101.8705,4.073,5.321,39.46,0,110,13.27,4.84,270.1
"2016-03-25 01:15:30",1487602,4.636,310.8,8.85,1.533,8.86,101.8691,4.069,5.287,38.98,0,109.9,13.27,4.84,272.8
"2016-03-25 01:16:00",1487603,3.639,318.5,11.77,1.488,8.76,101.8525,4.027,5.317,39.64,0,109.9,13.28,4.79,280.5
"2016-03-25 01:16:30",1487604,3.656,321.5,10.23,1.41,8.48,101.8347,3.981,5.286,40.05,0,109.9,13.28,4.75,283.5
"2016-03-25 01:17:00",1487605,4.2,319.4,18.12,1.755,9.51,101.8221,3.949,5.166,40.22,0,109.9,13.28,4.71,281.4
"2016-03-25 01:17:30",1487606,7.758,324,6.458,1.636,9.47,101.8151,3.931,5.158,39.08,0,109.9,13.28,4.70,286.0
"2016-03-25 01:18:00",1487607,8.26,328.7,7.338,1.392,10.85,101.8151,3.931,5.206,38.17,0,110,13.28,4.70,290.7
"2016-03-25 01:18:30",1487608,9.2,326.4,6.835,1.382,10.84,101.8165,3.935,5.206,37.75,0,110,13.28,4.70,288.4
"2016-03-25 01:19:00",1487609,9.15,327.2,7.061,1.39,11.26,101.8191,3.941,5.211,37.37,0,109.9,13.28,4.71,289.2
"2016-03-25 01:19:30",1487610,8.77,329.4,7.008,1.428,11.69,101.8199,3.943,5.228,37.49,0,109.9,13.28,4.71,291.4
"2016-03-25 01:20:00",1487611,8.25,326.1,7.165,1.392,11.5,101.8223,3.949,5.171,37.37,0,109.9,13.28,4.72,288.1
"2016-03-25 01:20:30",1487612,7.449,325.2,7.446,1.386,10.77,101.824,3.954,5.143,37.29,0,109.9,13.28,4.72,287.2
"2016-03-25 01:21:00",1487613,7.624,324.9,7.64,1.403,10.78,101.835,3.982,5.107,37.36,0,109.9,13.28,4.75,286.9
"2016-03-25 01:21:30",1487614,6.927,324.2,7.368,1.291,9.77,101.8441,4.005,5.098,37.24,0,109.9,13.28,4.77,286.2
"2016-03-25 01:22:00",1487615,7.19,328.6,6.839,1.36,10.72,101.8552,4.033,5.139,37.14,0,109.9,13.28,4.80,290.6
"2016-03-25 01:22:30",1487616,7.086,326.6,6.554,1.298,10.93,101.8637,4.055,5.24,37.01,0,109.8,13.28,4.82,288.6
"2016-03-25 01:23:00",1487617,6.587,325,7.028,1.361,10.49,101.8702,4.072,5.161,36.69,0,109.9,13.28,4.84,287.0
"2016-03-25 01:23:30",1487618,6.393,324,6.192,1.148,9.76,101.8812,4.1,5.248,36.72,0,109.9,13.28,4.87,286.0
"2016-03-25 01:24:00",1487619,7.018,326.2,7.248,1.497,10.47,101.8874,4.116,5.191,36.4,0,109.9,13.28,4.88,288.2
"2016-03-25 01:24:30",1487620,6.841,325.7,7.042,1.318,10.43,101.8976,4.142,5.311,36.47,0,109.9,13.28,4.91,287.7
"2016-03-25 01:25:00",1487621,6.788,328.5,6.841,1.324,10.69,101.8999,4.148,5.252,36.19,0,109.9,13.28,4.91,290.5
"2016-03-25 01:25:30",1487622,6.62,325.1,6.789,1.384,10.86,101.9123,4.179,5.328,35.92,0,109.9,13.28,4.95,287.1
"2016-03-25 01:26:00",1487623,6.606,326.7,6.901,1.312,10.88,101.9197,4.198,5.319,35.9,0,109.9,13.28,4.96,288.7
"2016-03-25 01:26:30",1487624,6.447,326.1,6.139,1.286,10.42,101.9324,4.231,5.292,36.3,0,109.9,13.28,5.00,288.1
"2016-03-25 01:27:00",1487625,6.149,324.2,6.52,1.249,9.49,101.9335,4.233,5.3,36.32,0,109.9,13.28,5.00,286.2
"2016-03-25 01:27:30",1487626,6.608,325.1,6.912,1.376,10.38,101.9366,4.241,5.396,36.01,0,109.9,13.28,5.01,287.1
"2016-03-25 01:28:00",1487627,6.967,329.5,7.528,1.336,11.06,101.94,4.25,5.359,35.72,0,109.9,13.28,5.02,291.5
"2016-03-25 01:28:30",1487628,6.222,329.7,6.46,1.357,9.84,101.9474,4.269,5.335,35.66,0,109.9,13.28,5.04,291.7
"2016-03-25 01:29:00",1487629,6.178,331.6,7.734,1.395,10.94,101.9519,4.28,5.459,36.11,0,109.9,13.29,5.05,293.6
"2016-03-25 01:29:30",1487630,5.316,327,7.134,1.276,9.46,101.9584,4.297,5.426,36.62,0,109.9,13.29,5.06,289.0
"2016-03-25 01:30:00",1487631,5.483,327.2,7.011,1.373,9.61,101.9643,4.312,5.327,36.59,0,109.9,13.29,5.08,289.2
"2016-03-25 01:30:30",1487632,5.973,327.8,6.236,1.381,10.07,101.9666,4.318,5.495,36.93,0,109.9,13.29,5.09,289.8
"2016-03-25 01:31:00",1487633,6.046,336.5,7.724,1.369,9.81,101.9674,4.32,5.436,37.13,0,109.9,13.29,5.09,298.5
"2016-03-25 01:31:30",1487634,5.87,330.7,8.64,1.357,9.77,101.9674,4.32,5.499,37.53,0,109.9,13.29,5.09,292.7
"2016-03-25 01:32:00",1487635,6.447,328.7,7.635,1.395,10.12,101.9674,4.32,5.476,37.29,0,109.9,13.29,5.09,290.7
"2016-03-25 01:32:30",1487636,6.037,328,6.868,1.262,9.41,101.9677,4.321,5.482,36.93,0,109.9,13.29,5.09,290.0
"2016-03-25 01:33:00",1487637,6.551,329.9,5.723,1.279,9.53,101.9686,4.323,5.46,36.74,0,109.9,13.29,5.09,291.9
"2016-03-25 01:33:30",1487638,7.581,336.7,6.65,1.379,10.76,101.9686,4.323,5.505,36.97,0,109.9,13.29,5.09,298.7
"2016-03-25 01:34:00",1487639,7.12,333.7,6.491,1.284,9.44,101.968,4.322,5.445,36.65,0,109.9,13.29,5.09,295.7
"2016-03-25 01:34:30",1487640,7.591,338.1,7.154,1.522,10.57,101.9655,4.315,5.526,36.65,0,109.9,13.29,5.08,300.1
"2016-03-25 01:35:00",1487641,6.664,334.9,6.8,1.334,10.03,101.9668,4.318,5.523,36.6,0,109.9,13.29,5.09,296.9
"2016-03-25 01:35:30",1487642,6.133,331.6,6.19,1.253,9,101.9656,4.315,5.475,36.53,0,109.9,13.29,5.08,293.6
"2016-03-25 01:36:00",1487643,6.803,334,6.966,1.37,10.26,101.96,4.301,5.464,36.66,0,109.9,13.29,5.07,296.0
"2016-03-25 01:36:30",1487644,6.404,329.5,7.661,1.343,9.68,101.9608,4.303,5.486,36.85,0,109.9,13.29,5.07,291.5
"2016-03-25 01:37:00",1487645,6.154,328.8,7.41,1.393,10.15,101.9612,4.304,5.465,36.87,0,109.9,13.29,5.07,290.8
"2016-03-25 01:37:30",1487646,5.597,321.9,6.678,1.333,9.83,101.9618,4.306,5.452,36.65,0,109.9,13.29,5.07,283.9
"2016-03-25 01:38:00",1487647,5.445,318,6.837,1.273,9.34,101.9604,4.302,5.44,36.25,0,109.8,13.29,5.07,280.0
"2016-03-25 01:38:30",1487648,5.876,320.2,7.308,1.332,9.57,101.9558,4.29,5.426,36.22,0,109.9,13.29,5.06,282.2
"2016-03-25 01:39:00",1487649,5.919,326.1,7.592,1.352,10.41,101.9559,4.291,5.505,36.65,0,109.9,13.28,5.06,288.1
"2016-03-25 01:39:30",1487650,5.063,319.3,6.751,1.283,9.42,101.9519,4.28,5.384,36.63,0,110,13.28,5.05,281.3
"2016-03-25 01:40:00",1487651,5.472,324.9,8.04,1.344,10.63,101.9496,4.275,5.501,36.61,0,109.9,13.28,5.04,286.9
"2016-03-25 01:40:30",1487652,4.813,324.5,7.05,1.29,9.31,101.9499,4.275,5.409,36.55,0,109.9,13.28,5.04,286.5
"2016-03-25 01:41:00",1487653,5.211,326.2,9.57,1.505,9.29,101.9517,4.28,5.455,36.27,0,109.9,13.28,5.05,288.2
"2016-03-25 01:41:30",1487654,5.37,333.9,7.229,1.413,9.72,101.9531,4.283,5.412,36.29,0,109.9,13.28,5.05,295.9
"2016-03-25 01:42:00",1487655,6.005,338.6,8.2,1.349,9.8,101.9514,4.279,5.533,36.53,0,109.9,13.28,5.05,300.6
"2016-03-25 01:42:30",1487656,5.788,339.4,5.633,1.386,9.59,101.9455,4.264,5.358,36.23,0,110,13.28,5.03,301.4
"2016-03-25 01:43:00",1487657,5.677,332.9,8.43,1.473,9.46,101.9378,4.244,5.475,36.49,0,109.9,13.29,5.01,294.9
"2016-03-25 01:43:30",1487658,4.926,327.8,8.75,1.867,9.97,101.9333,4.233,5.417,37.01,0,109.9,13.29,5.00,289.8
"2016-03-25 01:44:00",1487659,4.246,326.1,4.421,1.498,8.16,101.9225,4.205,5.404,36.94,0,109.9,13.29,4.97,288.1
"2016-03-25 01:44:30",1487660,4.159,337.9,17.47,1.392,9.11,101.918,4.194,5.348,36.45,0,109.9,13.29,4.96,299.9
"2016-03-25 01:45:00",1487661,5.519,334.7,11.33,1.373,9.42,101.9183,4.195,5.375,36.73,0,109.9,13.29,4.96,296.7
"2016-03-25 01:45:30",1487662,6.085,324.8,7.325,1.388,9.79,101.9186,4.195,5.399,36.03,0,109.9,13.3,4.96,286.8
"2016-03-25 01:46:00",1487663,6.141,319.8,7.797,1.295,10.69,101.9175,4.192,5.421,35.51,0,109.9,13.3,4.96,281.8
"2016-03-25 01:46:30",1487664,6.858,320.1,8.29,1.29,10.91,101.9127,4.18,5.399,35.23,0,109.9,13.3,4.95,282.1
"2016-03-25 01:47:00",1487665,6.295,321,6.765,1.419,9.56,101.9124,4.18,5.377,35.15,0,109.9,13.3,4.95,283.0
"2016-03-25 01:47:30",1487666,6.417,329.6,7.587,1.331,10.7,101.9105,4.175,5.399,35.4,0,109.9,13.3,4.94,291.6
"2016-03-25 01:48:00",1487667,5.537,328.4,7.046,1.33,10.02,101.9131,4.181,5.283,35.45,0,109.9,13.3,4.95,290.4
"2016-03-25 01:48:30",1487668,5.451,326.9,7.495,1.366,9.98,101.9111,4.176,5.276,35.5,0,109.9,13.3,4.94,288.9